Torna al catalogo

COSMOS 2114

AttivoMilitarePO
NORAD 21028·PAYLOAD·🇷🇺 Russia

Lanciato Dec 22, 1990 da Plesetsk Cosmodrome

Loading…

Prossimi Passaggi (prossime 24 ore)

TLE

AggiornatoSource: Space-Track

Epoca: Sep 14, 2026, 04:22 UTC

1 21028U 90114A   26257.18199187  .00000027  00000-0  92541-4 0  9998
2 21028  82.5818 176.8853 0006323  87.1180  76.8405 12.62805111646625

Traccia COSMOS 2114 in tempo reale con AllMySat

Download on the App Store